Hondo, TX

3:21 AM CDT on August 24, 2019 (GMT -0500)
Hondo Municipal

Weather History for KHDO - July, 2019

Change the Weather History Date:

Thursday, July 18, 2019

  Actual Average Record
Temperature  
Mean Temperature 87 °F -  
Max Temperature 100 °F 93 °F 105 °F (2018)
Min Temperature 75 °F 70 °F 69 °F (2000)
Cooling Degree Days 22    
Growing Degree Days 37 (Base 50)    
Moisture  
Dew Point 70 °F    
Average Humidity 65    
Maximum Humidity 91    
Minimum Humidity 33    
Precipitation  
Precipitation 0.00 in - - ()
Sea Level Pressure  
Sea Level Pressure 29.94 in    
Wind  
Wind Speed 11 mph (SE)    
Max Wind Speed 20 mph    
Max Gust Speed 28 mph    
Visibility 10 miles    
Events      
Averages and records for this station are not official NWS values.
T = Trace of Precipitation, MM = Missing Value Source: NWS Daily Summary

Daily Weather History Graph

Daily Weather History Graph

Search for Another Location

Airport or City:

Astronomy

Jul. 18, 2019 Rise Set
Actual Time 6:48 AM CDT 8:36 PM CDT
Civil Twilight 6:22 AM CDT 9:03 PM CDT
Nautical Twilight 5:50 AM CDT 9:35 PM CDT
Astronomical Twilight 5:16 AM CDT 10:08 PM CDT
Moon 10:08 PM CDT (7/18) 8:16 AM CDT (7/18)
Length of Visible Light 14h 41m
Length of Day
13h 48m
Full, 97% of the Moon is Illuminated
Jul 18
Full
Jul 24
Last Quarter
Jul 31
New
Aug 7
First Quarter
Aug 15
Full

Hourly Weather History & Observations

Time (CDT) Temp. Heat Index Dew Point Humidity Pressure Visibility Wind Dir Wind Speed Gust Speed Precip Events Conditions
12:51 AM 80.1 °F 83.2 °F 70.0 °F 71% 29.96 in 10.0 mi SE 10.4 mph - N/A   Clear
1:51 AM 78.1 °F - 70.0 °F 76% 29.96 in 10.0 mi SE 11.5 mph - N/A   Clear
2:51 AM 75.9 °F - 70.0 °F 82% 29.97 in 10.0 mi ESE 6.9 mph - N/A   Clear
3:21 AM 75.9 °F - 71.1 °F 85% 30.01 in 10.0 mi ESE 8.1 mph - N/A   Mostly Cloudy
3:51 AM 75.9 °F - 72.0 °F 87% 29.96 in 10.0 mi SE 11.5 mph - N/A   Overcast
4:06 AM 77.0 °F - 72.0 °F 84% 30.01 in 10.0 mi SE 9.2 mph - N/A   Overcast
4:27 AM 77.0 °F - 72.0 °F 84% 30.02 in 10.0 mi SE 8.1 mph - N/A   Overcast
4:51 AM 75.9 °F - 72.0 °F 87% 29.98 in 10.0 mi SE 10.4 mph - N/A   Overcast
5:51 AM 75.9 °F - 73.0 °F 91% 29.97 in 10.0 mi ESE 8.1 mph - N/A   Overcast
6:51 AM 75.9 °F - 73.0 °F 91% 29.98 in 10.0 mi ESE 5.8 mph - N/A   Overcast
7:25 AM 75.9 °F - 73.0 °F 91% 30.02 in 10.0 mi ESE 6.9 mph - N/A   Overcast
7:51 AM 77.0 °F - 73.0 °F 88% 29.99 in 10.0 mi ESE 9.2 mph - N/A   Overcast
8:11 AM 77.0 °F - 73.0 °F 88% 30.04 in 10.0 mi SE 8.1 mph - N/A   Overcast
8:51 AM 79.0 °F - 72.0 °F 79% 29.99 in 10.0 mi South 12.7 mph - N/A   Overcast
9:51 AM 82.9 °F 87.5 °F 71.1 °F 67% 29.99 in 10.0 mi SSE 16.1 mph - N/A   Scattered Clouds
10:51 AM 86.0 °F 90.7 °F 70.0 °F 59% 29.98 in 10.0 mi South 11.5 mph - N/A   Partly Cloudy
11:51 AM 90.0 °F 93.6 °F 68.0 °F 48% 29.97 in 10.0 mi South 13.8 mph - N/A   Clear
12:51 PM 93.9 °F 97.0 °F 66.0 °F 40% 29.95 in 10.0 mi SSW 15.0 mph 25.3 mph N/A   Clear
1:51 PM 95.0 °F 97.9 °F 66.0 °F 38% 29.93 in 10.0 mi South 17.3 mph - N/A   Clear
2:51 PM 97.0 °F 100.4 °F 66.0 °F 36% 29.90 in 10.0 mi South 16.1 mph 24.2 mph N/A   Clear
3:51 PM 99.0 °F 102.3 °F 64.9 °F 33% 29.88 in 10.0 mi SE 15.0 mph 23.0 mph N/A   Partly Cloudy
4:51 PM 98.1 °F 101.2 °F 64.9 °F 34% 29.86 in 10.0 mi South 16.1 mph 25.3 mph N/A   Scattered Clouds
5:51 PM 97.0 °F 99.3 °F 64.0 °F 34% 29.83 in 10.0 mi SE 16.1 mph 26.5 mph N/A   Partly Cloudy
6:51 PM 97.0 °F 100.4 °F 66.0 °F 36% 29.83 in 10.0 mi SE 13.8 mph 24.2 mph N/A   Scattered Clouds
7:51 PM 93.0 °F 97.4 °F 68.0 °F 44% 29.84 in 10.0 mi SE 17.3 mph 24.2 mph N/A   Clear
8:51 PM 90.0 °F 95.4 °F 70.0 °F 52% 29.85 in 10.0 mi SE 15.0 mph - N/A   Clear
9:51 PM 87.1 °F 92.8 °F 71.1 °F 59% 29.88 in 10.0 mi SE 19.6 mph 27.6 mph N/A   Clear
10:51 PM 84.0 °F 87.8 °F 69.1 °F 61% 29.90 in 10.0 mi SE 17.3 mph 25.3 mph N/A   Clear
11:51 PM 82.0 °F 84.9 °F 68.0 °F 62% 29.92 in 10.0 mi SE 16.1 mph - N/A   Clear